Weather History for KCGE - June, 2014

Change the Weather History Date:

Friday, June 6, 2014

  Actual Average (KESN) Record (KESN)
Temperature  
Mean Temperature 68 °F -  
Max Temperature 77 °F 83 °F 90 °F (1952)
Min Temperature 59 °F 59 °F 43 °F (1976)
Cooling Degree Days 3    
Growing Degree Days 18 (Base 50)    
Moisture  
Dew Point 52 °F    
Average Humidity 56    
Maximum Humidity 94    
Minimum Humidity 34    
Precipitation  
Precipitation 0.00 in - - ()
Sea Level Pressure  
Sea Level Pressure 29.91 in    
Wind  
Wind Speed 5 mph (NW)    
Max Wind Speed 10 mph    
Max Gust Speed 16 mph    
Visibility 10 miles    
Events      
Averages and records for this station are not official NWS values.
T = Trace of Precipitation, MM = Missing Value Source: NWS Daily Summary

Daily Weather History Graph

Daily Weather History Graph

Search for Another Location

Airport or City:

Trip Planner

Search our weather history database for the weather conditions in past years. The results will help you decide how hot, cold, wet, or windy it might be!

Date:

Astronomy

Jun. 06, 2014 Rise Set
Actual Time 5:40 AM EDT 8:25 PM EDT
Civil Twilight 5:08 AM EDT 8:57 PM EDT
Nautical Twilight 4:29 AM EDT 9:36 PM EDT
Astronomical Twilight 3:44 AM EDT 10:21 PM EDT
Moon 1:47 PM EDT (6/6) 1:25 AM EDT (6/6)
Length of Visible Light 15h 48m
Length of Day
14h 45m
First Quarter, 58% of the Moon is Illuminated
Jun 6
First Quarter
Jun 13
Full
Jun 19
Last Quarter
Jun 27
New
Jul 5
First Quarter

Hourly Weather History & Observations

Time (EDT) Temp. Dew Point Humidity Pressure Visibility Wind Dir Wind Speed Gust Speed Precip Events Conditions
12:12 AM 60.8 °F 59.0 °F 94% 29.84 in 10.0 mi NW 4.6 mph - N/A   Clear
12:32 AM 69.8 °F 55.4 °F 60% 29.84 in 10.0 mi NW 5.8 mph - N/A   Clear
12:52 AM 69.8 °F 55.4 °F 60% 29.84 in 10.0 mi NW 5.8 mph - N/A   Clear
1:12 AM 69.8 °F 53.6 °F 56% 29.84 in 10.0 mi NW 6.9 mph - N/A   Clear
1:32 AM 69.8 °F 55.4 °F 60% 29.84 in 10.0 mi NW 3.5 mph - N/A   Clear
1:52 AM 64.4 °F 53.6 °F 68% 29.84 in 10.0 mi Calm Calm - N/A   Clear
2:12 AM 60.8 °F 55.4 °F 82% 29.85 in 10.0 mi Calm Calm - N/A   Clear
2:32 AM 60.8 °F 55.4 °F 82% 29.85 in 10.0 mi Calm Calm - N/A   Clear
2:52 AM 60.8 °F 55.4 °F 82% 29.85 in 10.0 mi Calm Calm - N/A   Clear
3:12 AM 60.8 °F 55.4 °F 82% 29.85 in 10.0 mi Calm Calm - N/A   Clear
3:32 AM 59.0 °F 53.6 °F 82% 29.85 in 10.0 mi Calm Calm - N/A   Clear
3:52 AM 60.8 °F 55.4 °F 82% 29.86 in 10.0 mi Calm Calm - N/A   Clear
4:12 AM 62.6 °F 53.6 °F 72% 29.86 in 10.0 mi NW 4.6 mph - N/A   Clear
4:32 AM 62.6 °F 53.6 °F 72% 29.87 in 10.0 mi NW 5.8 mph - N/A   Clear
4:52 AM 66.2 °F 51.8 °F 60% 29.87 in 10.0 mi NW 8.1 mph - N/A   Clear
5:12 AM 64.4 °F 51.8 °F 64% 29.88 in 10.0 mi Calm Calm - N/A   Clear
5:32 AM 64.4 °F 51.8 °F 64% 29.88 in 10.0 mi NW 6.9 mph - N/A   Clear
5:52 AM 62.6 °F 53.6 °F 72% 29.89 in 10.0 mi NW 5.8 mph - N/A   Clear
6:12 AM 64.4 °F 53.6 °F 68% 29.90 in 10.0 mi NW 5.8 mph - N/A   Clear
6:32 AM 64.4 °F 53.6 °F 68% 29.90 in 10.0 mi NW 6.9 mph - N/A   Clear
6:53 AM 66.2 °F 53.6 °F 64% 29.90 in 10.0 mi NW 5.8 mph - N/A   Clear
7:13 AM 69.8 °F 53.6 °F 56% 29.91 in 10.0 mi NW 6.9 mph - N/A   Clear
7:33 AM 69.8 °F 51.8 °F 53% 29.91 in 10.0 mi NW 10.4 mph - N/A   Clear
7:53 AM 69.8 °F 50.0 °F 49% 29.92 in 10.0 mi NW 9.2 mph - N/A   Clear
8:13 AM 69.8 °F 51.8 °F 53% 29.92 in 10.0 mi NW 8.1 mph - N/A   Clear
8:33 AM 71.6 °F 51.8 °F 50% 29.93 in 10.0 mi NW 5.8 mph - N/A   Clear
8:53 AM 71.6 °F 51.8 °F 50% 29.92 in 10.0 mi NNW 8.1 mph - N/A   Clear
9:13 AM 71.6 °F 50.0 °F 46% 29.92 in 10.0 mi North 10.4 mph - N/A   Clear
9:33 AM 71.6 °F 50.0 °F 46% 29.92 in 10.0 mi NW 9.2 mph - N/A   Clear
9:53 AM 71.6 °F 51.8 °F 50% 29.92 in 10.0 mi NW 6.9 mph - N/A   Clear
10:13 AM 71.6 °F 50.0 °F 46% 29.92 in 10.0 mi NW 9.2 mph - N/A   Clear
10:33 AM 71.6 °F 50.0 °F 46% 29.93 in 10.0 mi WNW 8.1 mph - N/A   Clear
11:53 AM 73.4 °F 50.0 °F 44% 29.93 in 10.0 mi NW 6.9 mph - N/A   Clear
12:13 PM 73.4 °F 50.0 °F 44% 29.93 in 10.0 mi WNW 8.1 mph - N/A   Clear
12:33 PM 77.0 °F 51.8 °F 41% 29.93 in 10.0 mi NW 6.9 mph - N/A   Clear
12:53 PM 77.0 °F 51.8 °F 41% 29.93 in 10.0 mi NW 10.4 mph 16.1 mph N/A   Clear
1:13 PM 77.0 °F 50.0 °F 39% 29.93 in 10.0 mi NW 8.1 mph - N/A   Clear
1:32 PM 77.0 °F 50.0 °F 39% 29.93 in 10.0 mi NNW 9.2 mph - N/A   Clear
1:53 PM 77.0 °F 50.0 °F 39% 29.92 in 10.0 mi NNW 9.2 mph - N/A   Clear
2:13 PM 77.0 °F 50.0 °F 39% 29.92 in 10.0 mi NNE 6.9 mph - N/A   Clear
2:33 PM 77.0 °F 51.8 °F 41% 29.92 in 10.0 mi NNW 4.6 mph - N/A   Clear
2:53 PM 77.0 °F 51.8 °F 41% 29.92 in 10.0 mi NW 6.9 mph - N/A   Clear
3:13 PM 77.0 °F 50.0 °F 39% 29.91 in 10.0 mi NNW 9.2 mph - N/A   Clear
3:33 PM 77.0 °F 50.0 °F 39% 29.91 in 10.0 mi NNW 8.1 mph - N/A   Clear
3:54 PM 77.0 °F 50.0 °F 39% 29.91 in 10.0 mi NW 8.1 mph - N/A   Clear
4:14 PM 77.0 °F 48.2 °F 36% 29.91 in 10.0 mi NW 8.1 mph - N/A   Clear
4:34 PM 77.0 °F 48.2 °F 36% 29.92 in 10.0 mi North 8.1 mph - N/A   Clear
4:54 PM 77.0 °F 50.0 °F 39% 29.92 in 10.0 mi NNW 8.1 mph - N/A   Clear
5:14 PM 77.0 °F 50.0 °F 39% 29.92 in 10.0 mi NW 5.8 mph - N/A   Clear
5:34 PM 77.0 °F 50.0 °F 39% 29.92 in 10.0 mi NW 6.9 mph - N/A   Clear
5:54 PM 77.0 °F 48.2 °F 36% 29.93 in 10.0 mi NW 4.6 mph - N/A   Clear
6:14 PM 77.0 °F 50.0 °F 39% 29.94 in 10.0 mi North 5.8 mph - N/A   Clear
6:34 PM 77.0 °F 48.2 °F 36% 29.93 in 10.0 mi NNW 4.6 mph - N/A   Clear
6:54 PM 77.0 °F 46.4 °F 34% 29.94 in 10.0 mi NNW 5.8 mph - N/A   Clear
7:14 PM 77.0 °F 50.0 °F 39% 29.94 in 10.0 mi NNW 4.6 mph - N/A   Clear
7:34 PM 77.0 °F 51.8 °F 41% 29.94 in 10.0 mi Calm Calm - N/A   Clear
7:54 PM 73.4 °F 51.8 °F 47% 29.94 in 10.0 mi Calm Calm - N/A   Clear
8:14 PM 71.6 °F 55.4 °F 57% 29.95 in 10.0 mi Calm Calm - N/A   Clear
8:34 PM 69.8 °F 53.6 °F 56% 29.95 in 10.0 mi Calm Calm - N/A   Clear
8:54 PM 66.2 °F 53.6 °F 64% 29.95 in 10.0 mi Calm Calm - N/A   Clear
9:14 PM 64.4 °F 53.6 °F 68% 29.96 in 10.0 mi Calm Calm - N/A   Clear
9:34 PM 62.6 °F 53.6 °F 72% 29.96 in 10.0 mi Calm Calm - N/A   Clear
9:54 PM 62.6 °F 53.6 °F 72% 29.97 in 10.0 mi Calm Calm - N/A   Clear
10:14 PM 62.6 °F 53.6 °F 72% 29.98 in 10.0 mi Calm Calm - N/A   Clear
10:34 PM 60.8 °F 53.6 °F 77% 29.99 in 10.0 mi Calm Calm - N/A   Clear
10:54 PM 60.8 °F 55.4 °F 82% 29.99 in 10.0 mi Calm Calm - N/A   Clear
11:14 PM 60.8 °F 55.4 °F 82% 29.99 in 10.0 mi Calm Calm - N/A   Clear
11:34 PM 60.8 °F 55.4 °F 82% 29.98 in 10.0 mi Calm Calm - N/A   Clear
11:54 PM 60.8 °F 55.4 °F 82% 29.98 in 10.0 mi Calm Calm - N/A   Clear